Wind_Speed
90 79 70 68 76 78 72 75 82 85 87 84 82 81 77 76 78 72 65 61 57 62 67 66 65 64 63 61 60 58 55 54 53 51 48 44 41 42 42 41 39 36 35 35 34 32 30 29 27 24 22 21 22 24 27 27 25 24 22 21 21 20 20 19 18 17 16 14 14 14 14 14 14 12 11 13 15 16 17 17 17 17 17 17 17 18 18 18
93 87 76 67 70 76 69 70 80 83 85 85 82 81 78 77 79 76 69 62 57 59 63 66 66 65 64 62 61 59 56 55 54 52 48 43 44 45 44 42 40 37 36 36 35 33 31 30 29 26 24 21 21 23 26 28 27 25 24 22 22 22 21 19 18 18 18 17 16 16 15 15 15 13 12 13 14 16 18 18 18 18 19 19 20 20 19 19
93 92 86 73 68 75 72 65 74 82 84 85 83 81 79 78 78 76 71 63 58 59 61 64 67 66 64 63 61 60 58 57 56 51 45 45 47 47 45 43 41 39 38 38 37 35 33 31 30 28 24 21 21 22 23 27 28 27 25 24 24 23 21 21 20 19 19 18 17 17 16 16 16 14 14 14 14 17 19 20 20 20 19 20 21 20 20 20
93 92 93 85 72 72 77 70 68 76 81 83 84 81 81 79 77 76 72 66 58 56 59 63 67 67 65 64 62 61 59 58 57 50 44 46 49 49 48 46 44 43 41 40 39 37 34 32 30 28 25 23 22 21 21 24 27 27 26 25 25 25 23 22 22 20 20 20 19 18 18 17 16 16 16 14 15 18 20 21 21 20 19 20 20 20 21 20
93 92 92 93 81 71 75 77 71 70 75 81 85 82 82 81 78 75 73 71 58 50 55 60 66 69 66 65 63 62 61 59 55 50 47 48 51 51 48 47 46 45 43 42 40 38 35 33 32 30 27 25 24 22 21 22 25 26 26 26 26 26 25 24 23 22 21 20 20 19 19 18 17 18 17 15 17 19 18 19 20 19 19 19 19 20 21 20
92 92 91 92 89 76 69 75 77 72 70 74 83 85 83 82 79 75 73 76 62 47 52 58 64 70 68 66 65 64 63 59 54 51 51 50 53 51 46 45 46 45 43 42 40 38 36 34 33 31 29 27 26 24 22 21 23 24 25 26 27 28 27 25 24 23 22 22 21 21 20 19 18 19 18 17 19 19 16 17 19 20 20 19 19 20 21 21
90 91 91 90 92 84 70 71 77 75 73 70 76 84 85 82 81 78 74 78 69 49 48 56 63 69 70 68 66 66 64 59 54 51 51 51 52 50 46 46 47 45 44 42 40 38 37 35 35 33 31 30 27 26 24 23 23 23 24 24 25 26 27 27 26 25 24 23 22 22 22 21 20 19 18 19 21 18 15 16 17 20 20 20 21 22 23 23
86 90 91 89 91 91 77 73 76 74 74 72 72 79 85 84 81 79 76 79 77 60 49 54 61 67 70 70 67 67 64 59 55 52 53 51 49 48 47 47 48 48 45 41 39 38 38 37 36 35 33 31 29 28 26 25 24 23 23 23 24 24 26 28 28 27 25 25 24 23 23 22 21 19 19 22 22 17 15 15 16 19 21 21 23 23 24 24
80 87 90 89 89 93 87 78 76 75 74 73 74 75 81 85 82 80 78 78 81 75 61 54 58 64 69 70 68 67 63 59 58 56 55 52 48 47 47 47 50 51 48 43 40 38 39 38 36 36 35 33 31 30 28 27 26 24 24 24 24 23 25 28 30 29 27 26 25 24 25 24 22 20 20 24 22 18 17 16 16 19 21 23 24 24 25 26
74 83 88 89 87 90 92 86 78 75 73 71 73 75 77 83 84 82 80 79 79 81 75 64 60 62 67 71 71 69 64 61 62 61 58 53 50 49 47 47 50 51 49 45 42 40 39 38 38 37 37 35 33 31 30 28 27 26 26 24 23 23 24 27 30 29 27 27 26 26 25 24 23 20 20 24 23 20 20 18 18 19 21 24 25 25 25 26
69 78 85 88 88 87 90 91 83 74 71 69 70 74 75 78 83 83 82 81 79 80 80 74 68 64 64 70 72 69 64 64 67 66 63 58 53 51 51 50 50 50 49 46 43 41 40 40 40 39 39 37 34 33 31 29 28 28 28 26 24 22 22 23 26 27 26 26 26 26 26 24 23 19 20 27 25 22 22 20 19 20 22 24 26 26 25 26
64 72 82 86 88 88 87 91 89 77 70 69 70 72 75 76 80 84 82 82 81 80 80 77 74 70 65 67 72 70 65 65 69 69 67 62 56 54 55 53 52 51 49 47 44 42 42 42 42 41 41 39 36 35 33 31 30 30 29 27 24 21 20 20 22 25 25 25 26 26 26 25 22 20 25 30 26 24 23 22 21 21 22 24 26 27 26 27
61 67 78 84 86 88 86 88 91 86 74 68 69 72 74 74 76 81 83 82 80 79 79 77 77 76 72 68 70 70 67 66 69 71 70 66 61 58 58 56 55 54 52 49 47 45 45 44 43 43 43 41 39 37 35 33 32 31 30 28 26 22 20 20 20 22 23 25 25 27 27 24 22 23 29 32 27 25 25 24 24 23 23 24 26 28 28 28
58 62 72 82 84 86 86 86 89 92 83 70 67 69 72 72 72 77 82 81 78 75 77 78 77 78 78 74 71 68 67 68 70 71 72 70 66 63 61 60 59 58 56 53 50 48 47 47 45 45 44 43 41 39 36 35 33 32 31 29 28 24 21 21 21 21 22 24 25 28 27 24 23 25 28 30 29 28 26 25 26 24 24 25 26 28 29 29
56 59 67 77 83 84 85 86 86 91 90 77 68 66 68 69 68 72 79 80 77 71 71 76 78 78 80 80 76 69 66 68 70 70 71 71 69 67 65 63 62 60 59 57 53 51 50 49 48 46 46 44 42 41 38 36 34 33 32 31 29 25 22 23 23 23 23 24 25 28 27 23 25 28 28 28 29 29 28 28 28 27 26 26 26 27 29 30
54 56 62 72 80 82 84 85 85 89 92 85 71 64 65 65 64 67 73 78 78 70 66 71 75 75 77 81 80 73 67 67 69 70 69 69 69 68 68 66 64 63 61 59 56 54 53 52 51 48 47 46 44 42 40 37 36 35 34 32 28 24 24 26 25 23 24 25 25 27 27 22 24 30 31 29 28 30 31 30 30 29 29 28 27 28 29 30
52 54 58 68 76 80 82 84 84 87 93 92 77 65 65 67 66 66 67 72 78 74 66 68 72 70 71 79 81 75 69 67 67 69 68 68 68 68 68 68 66 65 63 61 59 57 56 54 52 50 49 47 46 44 43 42 40 38 34 30 27 25 26 27 26 25 26 27 27 28 27 21 21 27 32 31 29 29 31 33 33 32 32 31 29 28 29 30
50 52 55 63 72 77 79 81 83 85 90 95 85 68 66 70 71 71 69 68 76 76 68 68 73 72 71 75 75 70 67 67 66 68 68 68 68 67 67 67 66 66 64 63 61 58 57 55 53 52 51 49 48 47 46 44 39 34 31 28 27 27 28 29 29 30 30 31 30 29 26 21 19 21 26 30 30 29 29 32 35 34 33 32 31 30 29 30
49 50 53 59 68 74 77 79 82 84 86 93 92 78 70 70 71 73 74 71 76 78 71 72 76 75 71 68 67 64 61 61 64 66 69 68 68 67 67 67 66 66 65 63 62 60 58 57 56 54 53 50 48 46 44 41 36 33 32 31 31 31 31 31 32 33 33 33 32 30 26 23 21 19 19 25 29 29 28 30 33 35 35 34 33 31 31 30
50 50 52 56 63 70 75 77 80 83 84 87 92 89 79 72 70 72 75 73 73 75 75 77 75 71 70 66 64 64 60 59 62 64 66 67 67 67 67 67 66 65 65 64 62 61 59 59 57 55 51 48 45 44 43 41 39 37 35 35 33 32 32 31 33 35 35 35 33 30 28 24 22 21 19 22 25 25 25 25 28 32 35 37 36 34 33 32
50 50 51 54 60 67 72 75 79 81 83 84 88 93 88 74 70 69 71 71 66 64 69 75 75 71 71 69 65 66 65 63 63 63 64 64 63 64 64 64 65 65 64 63 62 62 62 60 57 54 51 47 46 46 46 44 41 39 38 37 35 34 33 32 35 36 36 37 34 31 31 27 24 23 22 23 24 22 22 23 24 27 31 36 38 38 36 33
50 51 51 53 57 64 70 74 78 80 83 84 85 92 89 73 68 68 67 71 68 63 67 73 75 72 68 69 70 68 68 67 65 65 64 63 61 60 61 61 61 62 63 63 63 62 62 61 58 55 52 49 49 48 47 46 43 41 40 39 38 35 32 33 36 37 37 38 36 33 34 31 27 27 26 25 25 23 24 25 25 25 27 30 35 39 39 37
51 52 51 53 56 62 69 73 78 81 82 84 84 88 89 75 69 71 69 72 74 71 74 75 75 73 65 65 70 70 70 70 68 65 63 63 62 59 59 59 59 59 60 61 62 62 61 60 57 54 52 51 50 49 47 46 44 43 42 40 38 35 33 34 36 36 37 39 38 36 37 35 31 30 28 26 27 25 24 27 27 26 26 26 29 35 39 41
52 52 52 53 55 60 68 73 78 81 81 84 83 83 89 83 73 75 71 70 76 77 75 74 74 73 66 63 67 69 71 72 69 67 65 63 62 61 60 59 58 58 57 58 58 59 59 56 54 51 51 51 50 49 49 48 46 44 41 39 37 34 33 35 36 37 38 40 40 39 39 38 33 32 29 27 30 28 25 27 27 27 27 26 27 30 35 40
52 53 53 53 56 59 67 73 77 80 81 83 82 80 88 90 79 76 70 63 72 79 72 72 77 77 69 63 65 67 69 72 71 70 68 65 61 60 59 58 59 57 56 55 55 57 58 56 54 52 52 51 50 50 49 48 47 44 42 40 38 36 36 38 38 38 40 42 42 41 42 40 34 33 31 28 31 30 27 27 27 27 28 29 29 29 30 35
53 54 54 53 56 60 65 72 74 78 81 81 81 80 85 92 86 79 71 61 68 80 77 74 81 82 74 68 66 66 68 71 73 73 71 69 64 60 60 59 57 56 55 54 55 56 56 55 55 54 53 52 51 51 50 48 48 46 43 40 40 39 39 39 39 40 42 44 43 41 44 43 36 33 31 29 30 30 28 28 26 26 27 28 28 28 29 31
54 54 55 55 56 59 63 68 72 77 81 79 79 80 83 92 94 85 78 70 69 79 81 78 81 82 78 75 69 67 72 73 73 74 73 71 68 64 63 61 58 56 56 56 56 56 55 55 55 55 54 54 53 51 49 47 47 47 43 41 42 42 42 41 40 42 44 44 44 43 45 45 39 32 29 31 31 29 27 26 25 26 27 28 29 28 30 30
54 54 56 56 55 58 60 66 73 75 77 76 77 80 83 92 98 92 87 81 74 79 82 79 79 80 79 80 75 71 72 72 72 75 74 71 68 66 64 62 59 56 56 57 56 55 54 54 53 53 52 52 50 48 47 46 47 47 44 43 44 44 44 43 42 43 44 46 46 45 45 46 42 35 29 32 34 29 24 24 25 27 28 29 30 30 30 32
55 55 56 57 57 56 58 65 71 71 74 77 78 81 85 93 99 97 93 86 79 79 79 76 76 78 81 82 80 77 73 70 68 70 72 70 67 66 63 61 59 58 55 54 53 52 52 51 50 50 50 48 47 46 46 46 47 47 45 43 45 45 45 45 45 45 45 47 47 43 42 45 46 42 33 30 32 28 24 26 28 29 29 29 30 32 32 33
56 56 56 58 58 56 57 62 66 69 75 79 80 83 87 93 96 94 93 89 82 80 77 76 75 74 80 84 82 80 77 73 68 64 67 69 68 65 62 60 61 59 56 54 52 51 49 48 48 48 49 49 48 49 49 49 50 50 50 48 47 47 47 47 46 45 45 47 47 41 38 41 46 46 36 28 28 27 26 29 30 30 29 28 29 32 33 34
58 57 57 58 58 57 57 57 62 70 77 80 82 84 88 93 92 90 94 90 83 81 78 77 77 72 74 82 83 79 77 76 72 67 67 69 70 68 65 65 64 59 57 54 52 50 48 48 49 48 49 50 51 52 53 53 53 53 53 50 48 48 47 47 45 45 45 46 44 39 36 40 45 46 39 30 29 28 27 29 31 31 31 30 30 31 33 35
60 60 59 57 57 59 55 52 60 71 77 81 83 83 86 93 92 91 95 92 85 84 81 78 79 75 69 73 80 79 77 76 74 72 69 67 70 71 69 68 65 60 58 54 51 51 51 50 50 50 51 51 52 53 53 54 54 55 53 50 48 47 46 45 44 44 45 44 44 40 37 41 46 46 44 38 33 31 29 29 31 32 33 33 32 32 33 34
63 63 61 59 58 58 54 53 61 71 77 83 83 80 84 90 95 94 95 97 92 83 82 79 76 75 70 67 74 80 79 76 74 73 71 68 67 70 72 70 65 60 55 52 51 53 54 54 54 53 54 54 54 54 54 54 53 51 49 46 44 42 41 42 42 42 43 43 43 40 38 43 46 45 46 43 36 32 30 31 32 32 33 33 33 34 34 35
64 64 62 60 59 56 55 56 62 68 77 83 80 78 81 86 94 98 96 102 96 79 78 79 67 65 67 66 70 78 82 82 79 73 71 71 69 69 72 71 67 60 53 50 50 50 51 52 52 53 54 54 55 54 53 49 46 43 41 40 39 38 39 39 39 40 40 40 41 40 41 45 44 41 43 44 40 35 32 31 32 32 33 34 35 36 37 37
65 64 61 60 58 56 56 58 60 66 77 83 79 78 82 85 91 99 100 105 99 80 74 74 63 57 60 63 65 71 79 85 84 78 72 70 70 70 70 69 67 63 58 53 50 48 49 48 47 48 50 51 52 52 50 46 45 44 43 42 41 40 39 40 40 40 40 41 42 43 44 45 42 39 40 41 43 42 36 32 30 31 33 34 36 37 37 38
65 64 63 62 59 54 55 57 60 67 76 81 81 83 85 85 90 99 104 106 99 82 71 68 66 61 58 60 63 66 75 83 87 85 75 65 64 66 66 66 65 64 60 56 52 50 49 47 46 46 47 49 50 49 48 46 45 44 44 43 41 39 39 39 40 40 40 43 45 46 46 44 42 40 39 39 42 44 40 35 32 33 35 35 36 36 36 35
67 66 66 64 60 55 56 59 63 69 75 77 79 84 87 85 89 98 105 108 100 81 67 64 67 66 62 60 62 64 70 77 85 87 79 68 61 59 59 60 59 58 58 57 55 50 46 44 44 44 45 45 47 48 48 46 44 43 43 40 37 38 39 38 39 40 41 43 45 45 44 42 41 40 39 38 39 41 42 39 36 35 35 36 36 36 35 36
70 70 71 67 61 58 58 62 66 72 77 78 78 82 87 88 90 95 103 110 104 85 67 59 60 67 69 63 61 62 65 71 81 88 83 75 67 60 54 52 52 53 54 57 58 51 44 41 41 42 44 44 45 47 46 44 43 42 40 39 39 41 41 40 41 41 40 41 42 41 40 40 40 38 37 37 37 38 41 42 40 37 36 36 37 38 38 39
74 75 74 68 62 61 62 66 71 75 79 83 83 84 89 90 91 96 103 109 107 95 77 58 51 62 71 67 61 60 62 65 72 84 88 81 73 65 57 51 47 46 48 52 56 53 46 43 41 40 43 44 45 46 45 42 41 40 38 39 40 41 40 39 40 39 38 39 40 40 40 40 38 35 35 36 37 37 38 40 42 41 39 39 39 40 41 42
76 78 74 67 64 66 67 71 76 80 83 85 86 87 88 90 92 97 105 109 106 101 92 71 51 53 66 71 65 59 60 61 62 71 83 84 78 72 67 62 54 47 45 47 51 51 48 45 43 41 43 44 44 43 41 40 39 38 36 36 36 36 36 37 37 36 37 38 39 39 40 38 34 33 34 35 35 35 36 39 42 43 43 43 42 41 42 42
80 81 72 67 68 70 71 77 81 84 87 88 89 88 88 90 93 97 105 110 106 100 100 88 62 48 55 67 69 63 61 61 60 61 68 76 82 83 81 77 68 58 53 49 48 49 47 45 44 43 42 43 42 40 39 39 39 39 38 37 37 38 38 40 40 39 39 39 39 39 39 36 32 32 33 34 34 34 36 39 43 44 45 46 45 43 42 42
84 78 65 65 72 72 74 81 84 87 91 92 91 89 88 91 95 98 103 108 106 99 100 97 76 56 50 53 59 64 64 63 62 61 60 62 69 76 78 79 76 69 62 56 52 49 45 43 43 42 41 41 42 41 40 40 40 41 40 40 41 42 41 42 42 40 41 42 40 40 39 33 30 31 32 33 34 34 36 40 43 44 45 47 47 45 44 44
84 69 60 65 73 73 76 83 87 91 93 91 89 88 89 92 95 99 102 106 108 102 99 99 88 70 59 52 49 56 64 65 63 62 62 60 59 61 65 71 75 74 68 63 58 52 47 44 43 42 43 43 43 43 43 43 43 42 40 40 42 42 41 43 42 41 44 43 40 40 37 30 27 30 32 33 34 34 37 40 43 44 45 47 48 48 47 46
77 69 64 66 71 73 78 83 88 94 94 90 88 88 91 94 95 100 103 105 108 104 99 101 95 77 63 57 52 51 57 63 62 59 58 61 63 62 63 67 71 73 74 72 67 60 55 53 50 48 49 49 48 48 47 45 43 42 41 42 43 43 44 45 44 44 44 41 39 40 35 27 26 30 33 35 35 35 38 41 43 45 46 47 48 49 49 48
74 71 65 63 66 70 76 82 90 96 94 90 89 89 93 96 97 99 102 103 106 105 99 101 102 88 69 59 56 54 53 58 62 59 54 55 62 65 65 68 69 69 71 72 69 64 61 60 60 58 57 55 52 51 45 41 42 43 43 44 44 43 44 43 42 42 41 38 39 38 33 28 28 31 35 37 37 37 40 43 45 47 48 48 49 50 50 49
72 68 60 61 66 67 72 83 91 95 95 92 90 91 93 98 98 98 98 100 103 103 100 99 102 101 86 69 63 59 55 57 62 62 57 53 56 62 65 67 68 69 68 67 65 65 65 65 64 63 61 57 53 48 41 38 40 39 37 37 38 38 39 40 41 40 37 37 38 35 33 32 30 33 37 39 39 41 43 46 49 51 51 51 51 50 49 49
65 61 57 64 66 63 71 84 90 94 95 93 92 92 94 97 99 99 98 100 102 102 99 95 96 102 99 85 72 64 58 57 59 60 60 56 53 55 60 65 67 68 68 65 62 62 65 66 63 60 57 53 50 45 40 38 38 34 32 32 34 35 38 40 40 36 35 39 36 31 33 35 32 35 40 41 42 45 47 50 52 52 53 52 51 50 49 49
56 53 55 63 61 59 71 83 88 92 94 93 92 92 94 97 100 101 102 102 102 102 99 92 89 95 101 94 83 72 62 56 56 57 58 59 56 52 55 62 64 65 66 65 63 62 63 63 60 57 54 51 49 47 43 42 40 39 38 38 38 40 42 40 35 33 36 38 32 29 34 36 34 37 41 43 45 47 49 51 51 51 52 52 52 51 50 50
50 51 56 60 57 58 69 77 81 88 92 93 93 92 93 96 98 100 104 104 103 103 102 96 88 89 93 93 88 81 71 61 58 57 54 56 59 56 55 60 62 62 64 64 63 63 63 60 56 53 51 49 48 47 45 44 43 43 42 43 43 42 39 35 32 34 38 37 32 34 38 37 37 41 43 43 45 47 48 50 50 51 51 50 50 50 50 50
50 55 58 56 55 60 68 71 75 83 88 92 93 92 91 93 95 97 102 105 105 105 105 99 90 86 88 87 82 79 75 67 58 55 53 55 59 59 56 58 58 59 61 62 61 62 61 57 53 49 49 49 49 47 47 46 45 44 44 44 42 38 35 35 36 39 41 37 36 39 39 36 37 40 40 41 44 46 47 49 50 51 50 49 49 49 49 49
52 58 58 55 56 64 70 71 73 79 86 91 93 93 91 90 92 94 99 103 103 103 104 100 90 81 80 81 77 68 65 61 55 53 52 52 55 56 55 57 59 59 61 62 62 61 60 57 52 49 50 51 49 48 49 48 46 47 47 42 38 37 37 37 38 40 40 37 38 41 38 33 33 36 38 42 45 45 45 46 47 47 48 49 50 50 49 48
56 60 60 58 59 65 70 73 74 79 84 86 87 90 90 88 89 91 97 103 101 99 100 98 91 80 73 77 79 69 58 53 52 54 53 48 49 52 54 58 62 62 60 60 60 61 60 57 54 52 52 51 51 51 50 48 48 48 42 35 35 38 39 38 39 40 41 40 41 42 37 34 36 38 41 44 45 43 43 44 44 45 45 47 48 49 49 49
Wind_Direction
210 198 192 196 204 207 207 211 210 210 212 214 213 211 210 209 207 207 206 206 211 215 213 212 212 212 210 209 209 210 210 210 210 210 215 217 215 215 216 216 214 213 212 215 218 217 219 224 227 227 226 228 226 217 210 210 214 216 220 222 223 228 231 231 229 225 225 228 231 232 233 235 236 233 229 228 224 219 214 213 216 215 212 214 216 215 209 200
213 205 196 190 196 203 203 210 212 210 211 213 213 212 211 211 209 209 208 207 211 217 216 213 213 212 211 210 209 209 209 209 210 211 214 215 217 220 219 219 216 213 214 216 218 218 218 221 226 227 227 226 227 224 216 213 215 216 218 222 225 229 233 234 232 227 223 225 230 231 231 232 235 235 233 231 228 224 220 216 218 219 216 215 215 216 213 208
213 210 203 193 191 198 200 205 211 211 210 211 212 212 211 211 211 210 208 207 213 219 220 217 214 213 211 210 210 209 209 209 210 211 213 212 216 222 222 220 218 214 215 216 217 219 218 220 225 227 228 228 228 228 224 219 218 217 217 221 226 230 233 236 236 232 226 223 228 232 231 230 233 234 234 234 231 228 224 220 218 219 219 221 219 217 216 213
213 212 209 203 193 195 201 203 207 210 210 210 211 212 212 211 211 210 207 206 212 217 218 218 216 214 212 210 210 209 209 210 209 209 212 212 215 221 223 222 219 216 216 215 216 218 219 220 224 227 227 227 229 230 228 225 224 221 218 220 224 229 232 236 237 236 230 224 225 232 232 230 231 233 234 234 233 231 228 225 222 219 222 228 228 223 220 218
212 212 212 209 199 191 198 204 206 207 209 210 210 210 212 212 210 210 207 205 212 217 215 215 216 215 213 210 210 209 209 210 208 209 212 214 216 219 221 220 217 216 215 213 215 217 218 220 223 226 226 226 229 230 229 228 228 225 224 223 224 228 231 234 236 236 233 227 224 229 233 231 229 232 234 235 237 236 233 231 229 223 222 227 232 232 226 223
212 212 212 212 205 194 192 200 205 207 208 210 210 209 210 211 210 209 207 205 209 215 212 212 213 214 213 210 210 209 210 209 207 210 213 214 217 216 213 214 214 213 211 210 213 216 218 220 223 225 226 227 228 230 230 229 229 228 228 228 228 229 230 232 234 235 233 228 224 226 232 232 229 231 233 235 239 240 237 235 233 228 224 224 229 233 230 225
212 212 212 213 209 201 193 195 202 206 208 209 210 210 209 210 210 208 207 206 208 210 210 209 210 213 213 211 210 209 209 208 205 209 213 212 212 210 209 213 213 210 209 210 213 215 219 221 223 225 226 227 228 231 232 231 231 229 230 231 232 231 230 229 231 234 234 230 224 222 229 231 230 231 232 236 240 241 240 238 237 234 228 224 226 229 230 227
213 212 212 213 212 206 197 193 198 205 207 209 210 210 209 210 209 208 207 206 207 208 208 206 206 211 213 211 210 209 208 206 203 207 211 209 207 205 206 213 216 213 211 213 214 215 219 221 223 226 226 227 228 230 232 234 234 233 233 233 234 232 229 226 226 231 235 233 227 222 226 230 230 231 232 238 241 240 241 240 238 238 233 229 227 227 228 229
215 212 211 212 213 210 204 196 197 203 206 209 211 210 210 210 209 208 208 207 209 211 210 208 208 210 213 212 211 209 207 205 203 205 208 205 202 202 203 210 217 218 216 218 218 218 220 222 225 227 228 228 227 229 231 234 237 237 235 234 236 235 230 224 223 227 232 235 231 224 225 228 230 229 232 240 242 240 240 238 236 236 235 232 230 228 228 229
216 212 211 211 213 213 210 202 197 199 202 204 210 211 210 210 209 208 208 207 210 214 216 216 213 212 212 212 212 209 207 206 204 206 209 206 202 202 203 208 215 218 218 219 220 221 222 223 225 227 230 229 228 228 230 234 238 240 238 237 238 239 233 224 222 224 229 235 234 229 226 226 230 229 232 241 243 239 239 237 235 234 234 233 231 230 228 229
217 213 211 210 211 213 212 207 199 196 196 198 205 210 210 210 209 208 208 207 210 214 217 219 218 215 213 214 213 210 207 208 206 207 212 212 209 207 208 212 215 216 216 218 221 223 224 223 224 227 230 230 229 229 229 232 236 240 242 241 240 239 235 227 224 226 229 234 235 233 230 227 230 230 232 240 239 238 240 238 236 234 234 235 233 231 229 229
217 214 211 210 211 212 212 210 204 197 193 193 199 206 210 210 209 208 208 208 210 214 216 218 219 217 215 215 215 211 209 210 209 210 213 215 216 213 212 215 217 218 218 220 223 225 226 225 225 227 229 230 230 229 228 229 233 239 243 244 243 238 233 231 229 230 231 234 236 236 234 229 228 226 231 238 236 236 238 238 238 236 235 236 235 233 231 230
217 215 212 210 210 211 212 211 208 202 196 192 194 201 207 209 210 208 208 209 210 214 216 218 219 219 217 216 215 212 210 212 211 212 215 216 218 216 215 217 218 221 222 224 226 227 228 227 226 227 229 231 231 230 228 228 231 236 241 245 245 238 229 228 231 232 232 233 234 236 235 231 228 226 231 237 235 234 236 237 239 237 236 237 237 236 233 231
216 215 212 211 210 210 211 211 210 205 201 197 193 196 203 206 209 209 208 208 209 213 217 219 220 220 219 217 215 212 210 213 213 212 215 218 219 219 220 221 222 224 226 228 230 231 231 230 228 228 229 231 232 232 230 229 230 233 238 241 243 240 233 233 235 236 238 236 234 236 235 230 230 232 236 239 236 234 235 236 238 238 238 237 237 237 236 233
216 215 212 211 210 210 210 211 210 207 204 202 195 193 199 203 206 208 208 207 207 211 217 218 219 221 221 219 217 214 212 213 215 215 215 217 220 221 223 225 226 227 228 230 232 233 233 232 231 229 230 232 234 234 233 233 232 233 236 239 242 242 241 243 242 241 243 243 241 241 238 232 231 235 240 242 239 236 235 235 236 237 238 238 237 237 237 235
215 214 212 211 210 210 210 210 210 208 205 204 200 193 196 200 203 206 207 207 205 208 217 219 218 220 222 221 219 218 215 215 216 217 217 218 220 222 224 226 228 229 230 231 232 232 232 231 231 230 230 232 234 235 236 235 234 233 235 237 240 242 242 245 247 246 248 248 247 246 244 240 236 235 238 241 242 240 237 236 236 236 238 238 238 237 237 237
215 214 212 210 210 210 210 209 209 208 206 206 205 196 194 200 204 206 207 207 205 206 214 219 218 219 222 221 220 220 220 219 219 219 219 220 221 222 224 226 228 229 230 230 231 231 231 231 231 231 231 231 233 234 235 235 233 234 236 238 240 241 243 246 248 249 249 250 249 247 246 245 241 239 239 239 242 245 242 239 239 237 239 239 240 240 238 239
215 214 212 210 209 209 210 209 209 209 207 208 208 199 194 199 204 209 208 207 205 206 213 217 216 217 220 221 219 220 222 224 224 223 223 222 223 223 224 226 228 229 229 230 230 230 230 231 232 232 231 231 231 233 234 236 237 239 241 242 241 240 241 242 244 245 246 247 248 248 246 245 244 242 243 243 243 247 247 245 244 242 242 242 242 243 242 241
214 214 213 210 209 208 209 209 209 209 208 208 208 204 198 196 198 206 209 206 204 205 212 217 214 214 218 221 221 220 221 224 225 225 225 225 225 225 226 226 227 228 229 230 230 230 230 231 232 232 232 232 233 236 239 241 242 242 240 239 237 236 237 238 242 244 246 247 248 251 251 247 246 244 246 249 247 248 250 251 251 249 246 245 244 244 244 243
213 214 213 210 208 207 207 208 208 208 208 208 208 206 203 197 194 202 206 206 205 205 212 219 218 216 216 219 220 220 219 218 220 223 224 225 225 226 227 227 228 228 229 230 231 231 231 231 231 232 234 237 239 241 243 242 242 241 239 239 237 236 236 238 243 246 248 249 249 251 254 249 246 245 246 252 253 252 254 257 257 255 252 249 247 246 245 244
212 213 213 211 208 206 206 206 207 208 207 207 207 206 205 199 194 198 204 204 202 204 213 218 218 215 214 215 217 219 219 217 216 219 219 220 222 223 225 227 228 229 229 230 230 231 231 232 231 233 235 238 240 241 241 241 241 241 240 240 239 238 237 238 241 244 247 250 250 250 251 248 244 246 247 252 257 258 260 260 259 259 257 253 250 248 247 246
210 212 212 211 208 205 205 204 205 207 206 206 207 205 204 200 195 197 203 203 197 197 207 214 214 210 210 214 216 217 219 219 218 217 215 214 217 221 223 226 227 228 229 229 230 231 231 231 231 232 234 236 238 239 240 241 241 242 241 241 240 240 239 239 242 244 248 252 253 252 251 249 245 247 250 254 258 260 261 261 261 262 262 260 256 252 250 248
210 211 211 210 208 205 204 203 204 205 205 205 207 205 203 201 195 194 200 203 201 201 206 211 211 207 207 213 216 217 218 220 220 220 218 218 220 221 223 225 226 227 228 229 231 232 233 233 233 234 235 236 238 239 241 243 243 243 243 244 244 243 243 243 245 247 249 253 254 254 253 251 249 249 251 256 259 259 261 262 263 264 265 265 262 257 254 251
209 210 210 210 208 205 203 203 203 204 205 205 206 205 203 202 198 195 198 202 205 209 210 210 210 208 208 212 216 218 217 218 220 221 221 223 223 223 223 225 227 228 229 230 232 233 233 234 235 236 237 238 239 240 242 243 245 245 246 246 247 247 246 245 246 247 249 251 253 255 255 253 251 252 251 254 258 258 259 262 264 265 265 265 264 263 259 254
209 210 210 210 209 207 204 203 202 202 204 204 204 203 202 203 202 198 198 202 207 209 211 211 210 207 206 209 212 216 217 217 218 220 222 223 224 225 225 226 228 229 231 233 235 235 234 234 234 234 235 237 238 239 241 243 245 246 247 247 248 247 247 246 246 247 249 250 252 255 257 254 252 254 254 252 255 258 260 262 264 265 265 265 264 265 264 259
208 209 210 210 210 208 206 203 202 202 203 203 202 202 202 203 205 201 199 205 208 206 207 211 211 207 206 207 208 211 215 216 218 220 221 223 225 227 228 230 231 232 234 236 236 236 235 234 234 234 234 235 236 237 239 241 242 244 244 245 246 247 247 247 247 248 249 250 252 254 257 255 251 253 257 257 257 259 262 264 267 270 270 270 268 263 263 261
208 209 210 211 210 209 207 203 201 201 202 201 201 201 201 203 207 205 204 210 209 203 204 209 212 209 208 209 209 209 213 215 217 219 221 223 225 226 228 230 233 235 235 236 235 236 236 235 234 235 235 235 236 237 239 240 242 243 243 244 245 246 246 247 247 248 250 251 253 254 256 257 252 251 257 261 262 262 264 269 272 273 273 272 270 265 262 260
208 209 210 211 211 210 207 203 202 200 199 200 199 200 200 202 207 208 208 213 209 202 202 206 210 211 210 211 211 211 213 214 217 219 220 222 225 226 227 228 230 232 233 234 236 236 236 235 234 235 236 237 238 239 240 241 243 244 244 244 245 245 246 247 248 249 250 252 253 254 257 258 253 252 257 261 265 268 269 272 270 267 268 269 270 269 264 261
207 209 210 211 211 210 207 204 201 197 196 197 197 199 199 202 208 210 212 214 208 200 202 204 207 211 212 212 212 211 210 211 216 219 219 221 222 224 226 226 225 224 225 228 231 234 234 233 232 231 232 234 235 237 238 239 241 243 243 242 244 245 245 247 247 249 251 253 254 255 259 260 254 253 258 261 265 272 273 270 266 263 264 266 268 269 266 263
206 208 210 211 211 209 208 204 198 194 195 196 196 198 199 204 209 211 213 213 205 201 204 203 203 209 213 214 213 211 208 208 211 213 216 219 220 222 222 221 220 220 221 222 223 225 227 228 227 226 228 231 231 232 233 235 237 239 240 239 241 243 244 246 248 249 251 253 256 257 259 263 258 253 257 263 267 270 268 264 263 262 264 265 267 268 267 265
205 207 209 211 210 209 208 202 195 196 197 195 196 199 200 205 210 211 212 210 204 203 205 204 204 207 211 214 215 212 209 209 209 208 212 215 217 219 217 214 216 217 218 219 220 221 221 221 222 222 225 228 229 231 232 234 237 239 240 239 239 241 244 246 248 250 253 255 259 260 260 264 260 256 261 268 267 262 257 257 262 266 268 267 265 266 267 267
206 206 208 209 209 209 205 197 195 200 198 194 197 200 202 207 211 212 211 209 206 205 205 205 207 209 211 213 214 213 211 210 209 210 212 214 215 217 216 214 215 216 216 216 218 222 221 220 219 219 221 224 225 228 231 234 236 238 239 238 238 240 243 247 250 253 256 259 261 261 261 262 262 263 266 268 265 261 257 258 262 265 266 266 265 265 266 268
206 207 207 207 209 208 201 196 200 202 199 196 198 202 207 211 211 210 208 208 207 204 203 206 208 211 215 214 213 213 212 212 211 212 214 216 217 216 215 216 217 218 220 219 218 221 221 220 218 218 220 223 225 227 230 233 236 238 240 241 241 244 247 250 253 256 258 260 261 262 262 262 263 265 268 269 269 266 262 260 260 260 261 263 265 267 266 266
205 206 206 206 207 205 201 200 203 202 199 199 202 206 211 215 211 207 205 208 208 202 201 205 207 212 217 217 216 213 212 212 213 214 215 215 215 215 214 215 216 216 218 220 222 223 225 225 225 225 225 226 227 228 229 231 233 237 239 241 242 244 246 249 252 254 257 259 260 260 261 263 265 267 269 271 272 269 264 260 258 257 259 261 263 265 267 266
205 207 206 207 206 202 203 205 204 202 201 203 208 211 214 215 210 205 204 207 207 203 202 203 205 210 215 217 218 215 212 211 211 213 215 215 214 215 214 214 215 216 215 217 220 222 226 230 232 233 233 231 230 231 232 231 231 233 234 236 239 240 243 247 250 253 257 258 260 262 264 266 268 267 267 269 270 270 268 264 260 258 258 260 262 263 265 266
207 209 209 209 205 201 205 207 205 204 204 208 213 215 215 213 208 204 204 206 207 204 203 204 205 207 210 214 217 216 214 212 211 211 211 213 215 216 216 216 217 218 218 219 220 219 223 228 230 231 232 232 232 231 231 230 231 234 236 239 242 245 245 248 251 254 255 257 259 262 265 266 266 266 266 267 269 271 271 268 262 260 259 259 259 259 259 261
211 212 213 211 205 204 209 209 207 208 209 213 218 218 215 210 205 204 204 206 206 203 202 207 209 207 207 211 215 216 212 211 213 212 210 210 212 212 213 216 218 219 220 221 221 221 225 231 232 231 230 231 232 231 230 229 230 233 236 239 243 245 245 246 248 250 252 255 260 263 265 266 267 268 268 268 268 271 272 269 264 260 259 259 258 257 257 260
214 216 216 211 206 208 212 212 210 211 213 217 220 219 215 210 205 204 204 206 206 202 201 208 212 210 208 209 214 215 212 210 212 214 212 212 211 207 206 210 215 217 219 219 217 219 224 228 230 230 229 229 229 230 230 230 231 233 235 237 238 241 243 244 246 250 254 257 261 265 266 267 268 269 268 266 266 268 270 271 267 261 257 257 257 258 260 264
217 219 217 210 208 212 215 215 214 213 215 219 219 217 214 210 205 203 203 205 207 204 203 206 213 215 213 211 214 215 213 211 212 214 214 214 212 207 205 209 214 216 216 217 216 218 222 224 227 229 229 228 227 227 228 228 229 231 231 231 234 239 243 244 247 251 254 258 261 263 264 265 268 269 266 265 266 267 268 270 268 264 259 257 257 259 262 265
219 222 216 208 213 217 217 219 217 215 217 218 218 216 212 209 206 203 203 205 207 207 206 207 213 219 216 214 216 217 214 213 212 214 216 215 213 212 213 216 219 217 214 215 215 216 220 223 226 229 228 227 226 225 225 225 226 228 230 233 238 243 246 247 249 251 253 256 259 261 263 265 267 266 264 264 264 265 265 264 265 265 264 262 260 260 262 264
222 223 213 207 216 219 219 221 220 218 217 216 216 214 211 209 205 203 202 205 208 207 207 208 212 218 218 216 218 218 217 215 213 213 216 218 218 219 221 224 224 220 217 218 216 214 217 222 226 230 231 230 226 222 221 224 226 228 230 234 239 242 243 244 246 248 250 253 255 258 262 265 265 264 263 264 264 263 261 260 261 263 265 264 263 263 262 262
224 221 204 205 217 219 220 222 219 218 216 214 213 212 211 210 206 203 202 203 206 207 206 207 209 213 215 216 219 219 218 218 217 216 217 219 221 223 225 227 226 222 220 221 219 217 219 221 223 226 228 226 222 220 221 224 227 228 229 232 235 237 239 241 245 248 249 250 253 256 261 267 267 265 265 265 265 264 259 257 258 260 262 263 264 263 262 261
223 213 195 204 216 216 219 221 217 216 214 212 212 211 211 211 206 204 203 202 203 205 205 205 208 213 215 214 219 220 218 219 220 221 222 223 223 224 225 225 223 221 219 219 219 220 222 223 222 221 221 219 218 219 221 222 225 229 231 233 236 240 242 244 246 247 246 248 251 254 259 267 265 261 262 262 261 259 255 254 256 257 258 260 262 263 264 264
218 208 199 206 212 213 218 220 215 213 211 209 210 210 211 211 207 205 204 202 202 204 204 203 206 212 216 217 221 222 219 218 218 220 224 225 224 222 222 222 223 223 223 224 225 227 228 228 228 225 221 220 218 217 219 222 228 234 236 237 238 241 242 243 244 244 245 249 251 253 261 266 258 254 256 256 254 254 254 254 255 257 259 260 262 263 264 265
213 210 203 204 209 213 216 215 212 210 208 208 209 210 211 211 209 206 204 202 202 204 205 204 205 208 211 214 218 220 220 219 218 217 219 221 222 222 222 222 223 225 226 228 230 232 233 236 237 236 236 237 233 228 232 239 244 246 247 246 244 242 242 245 246 246 249 251 250 254 262 263 255 254 256 255 254 253 254 255 257 258 259 260 261 263 264 265
214 212 204 200 205 209 208 208 209 208 207 206 207 209 210 210 208 206 205 204 203 204 206 206 206 209 211 212 213 217 220 220 219 219 220 220 219 220 223 224 225 226 227 228 230 233 234 237 239 241 244 248 246 243 249 257 256 254 255 253 250 247 247 246 245 247 251 251 251 256 261 259 255 254 255 256 256 255 255 256 257 258 258 258 260 262 264 266
214 211 202 196 199 202 202 205 207 206 206 207 207 208 209 209 207 205 204 205 204 204 205 207 207 209 213 215 214 217 221 220 217 217 219 221 218 217 221 224 225 226 227 228 229 231 232 232 231 231 232 236 238 239 244 248 249 248 245 243 242 241 241 240 243 249 250 250 254 260 258 255 254 253 253 254 255 255 256 256 257 259 261 263 264 265 265 266
214 209 199 195 200 204 202 203 205 204 205 207 208 208 208 208 207 205 203 203 204 204 204 204 205 208 212 217 217 218 220 219 215 214 215 218 218 218 219 220 221 223 225 226 225 226 228 227 224 224 225 228 231 233 235 238 240 239 235 233 234 235 236 240 248 254 251 252 258 257 252 251 250 249 249 250 251 253 257 259 262 264 267 268 268 268 268 268
213 207 198 197 203 206 203 203 204 203 205 207 209 210 209 208 207 205 204 202 202 203 203 202 203 206 210 215 218 220 222 221 217 215 214 214 216 219 219 216 217 219 221 223 222 220 220 220 220 222 225 228 231 232 234 236 237 236 235 235 237 239 244 248 253 253 251 252 253 249 248 250 248 247 248 251 254 257 260 264 266 267 268 269 269 270 271 271
208 201 197 198 201 200 202 205 204 203 205 208 209 210 210 210 208 206 206 204 202 202 202 202 203 206 208 212 216 220 224 226 224 222 221 217 215 218 218 216 216 216 217 219 218 216 217 218 218 221 224 227 229 230 232 233 235 236 235 236 239 245 250 251 250 249 249 252 253 251 251 252 250 252 255 258 260 262 263 265 267 269 271 273 273 273 273 273
200 195 195 199 201 200 201 204 205 204 205 207 209 210 210 210 209 208 206 205 204 203 202 201 202 206 211 214 215 217 220 222 222 223 224 221 218 219 219 216 215 215 215 216 215 215 216 216 217 220 225 227 226 227 229 230 233 234 232 234 241 248 252 252 251 251 252 254 254 252 253 256 257 259 261 260 260 262 265 266 268 271 273 274 274 275 275 275
195 193 195 199 204 205 204 203 205 206 207 208 209 210 210 209 209 209 207 205 204 204 204 203 201 202 208 213 215 216 216 216 217 219 221 221 221 222 220 215 212 211 212 214 215 215 215 215 217 222 225 226 226 227 229 230 232 233 234 242 249 250 252 252 250 251 254 253 252 253 257 259 255 253 254 256 259 262 264 266 268 271 273 273 274 274 275 275
Height
5651 5659 5663 5670 5677 5684 5691 5696 5701 5708 5715 5722 5730 5737 5744 5750 5754 5759 5764 5769 5774 5778 5782 5785 5788 5791 5795 5800 5804 5808 5812 5816 5820 5823 5827 5831 5834 5836 5838 5841 5844 5848 5851 5853 5854 5856 5858 5859 5860 5861 5862 5864 5865 5866 5868 5870 5873 5875 5877 5880 5882 5882 5883 5885 5887 5888 5890 5890 5891 5893 5893 5894 5895 5896 5897 5897 5898 5898 5899 5900 5900 5901 5901 5903 5904 5904 5904 5904
5643 5653 5658 5663 5670 5679 5687 5691 5696 5702 5709 5716 5723 5731 5738 5744 5749 5756 5761 5767 5771 5773 5777 5781 5784 5787 5792 5796 5801 5805 5808 5813 5816 5821 5825 5828 5831 5832 5835 5839 5842 5846 5848 5850 5852 5854 5855 5857 5858 5859 5860 5862 5864 5865 5867 5869 5871 5873 5876 5878 5880 5881 5882 5883 5885 5887 5888 5889 5890 5891 5892 5893 5894 5895 5896 5896 5897 5897 5898 5899 5899 5900 5901 5902 5902 5903 5904 5904
5636 5646 5653 5658 5664 5672 5681 5686 5691 5697 5703 5711 5718 5725 5732 5738 5745 5752 5758 5764 5769 5770 5773 5777 5780 5783 5788 5792 5797 5801 5805 5808 5813 5819 5823 5825 5827 5829 5832 5837 5840 5843 5846 5848 5850 5851 5853 5855 5856 5857 5859 5861 5863 5864 5866 5868 5869 5871 5874 5876 5878 5879 5880 5881 5883 5885 5886 5887 5888 5889 5890 5891 5892 5893 5894 5895 5896 5896 5896 5897 5898 5899 5901 5901 5902 5903 5904 5904
5630 5639 5646 5653 5660 5666 5675 5682 5686 5692 5698 5704 5712 5719 5726 5733 5740 5747 5754 5760 5764 5766 5768 5771 5775 5780 5784 5788 5793 5798 5802 5805 5811 5817 5820 5822 5824 5827 5829 5833 5837 5840 5842 5845 5847 5849 5851 5853 5855 5856 5858 5860 5861 5863 5865 5866 5868 5870 5872 5874 5876 5877 5878 5880 5881 5883 5885 5886 5887 5887 5889 5890 5891 5892 5892 5893 5894 5894 5894 5896 5897 5899 5901 5902 5903 5903 5904 5904
5623 5632 5639 5647 5656 5661 5668 5677 5682 5687 5693 5699 5706 5713 5720 5727 5735 5743 5750 5754 5758 5762 5763 5765 5770 5775 5780 5785 5789 5794 5798 5802 5809 5814 5816 5818 5821 5825 5827 5829 5833 5837 5839 5842 5844 5846 5848 5851 5853 5854 5856 5858 5860 5861 5863 5865 5866 5868 5870 5872 5873 5875 5876 5878 5879 5881 5883 5884 5885 5886 5887 5888 5889 5890 5891 5892 5892 5892 5894 5896 5897 5899 5900 5901 5903 5903 5904 5904
5617 5626 5633 5641 5650 5656 5662 5670 5678 5683 5689 5694 5700 5707 5713 5721 5730 5737 5744 5749 5753 5757 5758 5760 5765 5769 5775 5781 5785 5790 5794 5800 5807 5810 5812 5815 5818 5822 5825 5826 5830 5833 5836 5839 5841 5843 5846 5848 5850 5853 5855 5856 5858 5860 5862 5863 5865 5867 5868 5870 5871 5872 5874 5876 5877 5879 5880 5882 5884 5884 5885 5886 5887 5888 5890 5891 5890 5892 5894 5895 5896 5898 5899 5900 5902 5902 5903 5903
5610 5619 5627 5634 5644 5651 5656 5664 5672 5679 5684 5690 5696 5702 5708 5716 5724 5732 5739 5744 5749 5753 5754 5755 5759 5763 5770 5776 5780 5786 5791 5798 5805 5806 5808 5812 5814 5818 5821 5823 5827 5830 5833 5836 5839 5841 5843 5846 5848 5850 5852 5854 5856 5858 5860 5861 5863 5865 5867 5868 5869 5870 5872 5874 5875 5877 5878 5880 5882 5883 5883 5884 5886 5887 5888 5888 5888 5891 5893 5894 5896 5897 5898 5899 5900 5900 5901 5902
5605 5613 5621 5628 5637 5646 5652 5658 5667 5674 5679 5685 5691 5697 5703 5710 5719 5727 5734 5739 5745 5748 5749 5751 5754 5759 5765 5772 5777 5782 5788 5795 5801 5802 5805 5808 5811 5814 5817 5820 5824 5826 5830 5832 5835 5838 5840 5842 5845 5848 5850 5852 5854 5856 5857 5859 5860 5863 5864 5866 5867 5868 5870 5871 5873 5874 5876 5877 5880 5881 5882 5882 5884 5886 5887 5886 5886 5890 5892 5893 5894 5895 5896 5897 5898 5899 5900 5900
5599 5607 5615 5623 5630 5639 5647 5653 5661 5669 5675 5681 5686 5692 5699 5705 5714 5722 5728 5736 5741 5743 5745 5747 5750 5755 5760 5768 5773 5779 5787 5793 5797 5799 5801 5804 5806 5810 5813 5817 5820 5823 5826 5829 5832 5835 5837 5840 5843 5845 5847 5850 5852 5854 5855 5856 5858 5861 5862 5863 5864 5865 5867 5868 5870 5872 5874 5875 5877 5879 5880 5881 5883 5884 5885 5884 5885 5889 5890 5891 5892 5893 5894 5895 5896 5898 5899 5899
5594 5601 5609 5617 5624 5632 5641 5649 5657 5663 5670 5676 5681 5688 5694 5700 5708 5715 5723 5733 5739 5739 5741 5744 5747 5751 5756 5762 5768 5776 5785 5788 5791 5795 5796 5799 5802 5806 5809 5812 5816 5819 5823 5826 5829 5832 5835 5838 5840 5842 5844 5847 5850 5852 5853 5855 5857 5858 5859 5861 5862 5863 5864 5866 5867 5869 5871 5873 5875 5877 5878 5880 5881 5883 5884 5882 5884 5887 5888 5889 5890 5891 5892 5892 5894 5895 5897 5898
5589 5596 5603 5611 5618 5626 5635 5645 5652 5657 5664 5670 5676 5683 5689 5696 5703 5710 5718 5726 5732 5734 5737 5740 5743 5748 5754 5759 5764 5774 5782 5782 5786 5789 5790 5794 5797 5801 5806 5809 5812 5816 5819 5822 5825 5828 5831 5834 5836 5839 5841 5844 5847 5849 5851 5853 5854 5855 5856 5858 5859 5860 5862 5863 5865 5867 5869 5871 5873 5875 5877 5879 5881 5883 5882 5879 5881 5884 5886 5888 5888 5889 5889 5890 5892 5893 5895 5897
5584 5590 5597 5604 5612 5620 5628 5638 5647 5652 5658 5665 5671 5678 5684 5690 5697 5704 5712 5718 5723 5728 5732 5735 5739 5745 5751 5755 5760 5770 5777 5778 5781 5784 5786 5790 5793 5796 5801 5805 5809 5812 5816 5819 5822 5825 5828 5830 5833 5835 5837 5841 5844 5846 5848 5850 5852 5853 5854 5856 5857 5858 5860 5861 5863 5865 5867 5869 5871 5873 5874 5877 5880 5881 5878 5875 5879 5882 5883 5886 5886 5887 5888 5888 5890 5891 5893 5894
5579 5585 5591 5599 5606 5614 5622 5631 5641 5647 5653 5659 5666 5673 5679 5685 5692 5699 5706 5711 5718 5724 5729 5732 5736 5741 5746 5751 5757 5765 5770 5772 5776 5780 5783 5787 5789 5793 5797 5802 5806 5809 5812 5815 5818 5821 5824 5827 5829 5832 5834 5838 5841 5843 5845 5848 5849 5851 5852 5854 5855 5857 5858 5860 5861 5863 5865 5867 5869 5870 5871 5875 5878 5877 5874 5873 5877 5879 5881 5883 5884 5885 5886 5886 5888 5889 5891 5892
5574 5580 5586 5593 5601 5608 5616 5624 5634 5643 5649 5654 5661 5668 5674 5680 5687 5694 5700 5707 5714 5720 5725 5729 5733 5736 5740 5747 5753 5759 5764 5767 5771 5776 5780 5783 5787 5790 5794 5798 5802 5806 5810 5812 5816 5819 5821 5824 5826 5829 5831 5834 5838 5840 5842 5845 5847 5848 5850 5851 5853 5855 5858 5860 5860 5861 5863 5864 5866 5866 5868 5872 5875 5873 5872 5873 5875 5877 5878 5880 5881 5883 5884 5885 5886 5887 5889 5890
5570 5575 5581 5588 5596 5603 5611 5618 5628 5638 5644 5649 5656 5663 5669 5676 5682 5689 5696 5703 5711 5718 5722 5724 5727 5730 5735 5740 5747 5754 5759 5763 5767 5772 5776 5780 5783 5787 5791 5795 5798 5802 5806 5809 5813 5815 5818 5821 5823 5826 5829 5832 5835 5837 5840 5842 5844 5846 5848 5849 5851 5855 5858 5858 5858 5860 5861 5862 5864 5864 5866 5870 5871 5871 5871 5872 5873 5875 5876 5878 5879 5880 5881 5882 5883 5885 5886 5888
5565 5571 5576 5583 5590 5598 5605 5613 5622 5632 5639 5644 5650 5657 5664 5671 5677 5684 5691 5699 5708 5714 5717 5717 5720 5725 5730 5735 5741 5749 5754 5759 5764 5768 5773 5777 5780 5784 5788 5791 5795 5799 5802 5806 5809 5812 5814 5817 5819 5823 5826 5829 5832 5834 5837 5839 5841 5843 5845 5847 5851 5855 5856 5855 5856 5858 5859 5860 5862 5862 5864 5868 5868 5868 5868 5870 5872 5872 5874 5876 5877 5878 5878 5879 5881 5882 5884 5885
5561 5566 5571 5577 5584 5592 5600 5608 5615 5625 5634 5638 5644 5652 5659 5667 5674 5680 5688 5696 5702 5707 5710 5711 5717 5723 5723 5724 5733 5745 5753 5757 5761 5765 5769 5773 5777 5781 5784 5787 5791 5795 5799 5802 5805 5808 5811 5813 5816 5819 5823 5826 5829 5831 5832 5834 5836 5840 5843 5847 5851 5853 5854 5854 5855 5856 5857 5857 5859 5860 5862 5865 5866 5865 5866 5868 5870 5870 5872 5874 5874 5875 5876 5877 5879 5880 5882 5883
5557 5562 5567 5572 5579 5586 5594 5602 5609 5618 5627 5633 5638 5645 5652 5661 5669 5675 5682 5690 5696 5702 5703 5702 5707 5710 5710 5716 5731 5745 5752 5755 5758 5761 5764 5768 5772 5776 5780 5784 5787 5791 5794 5798 5802 5805 5807 5810 5813 5816 5819 5822 5825 5827 5828 5831 5836 5840 5844 5847 5849 5850 5851 5852 5852 5853 5853 5854 5855 5857 5859 5862 5863 5863 5863 5865 5868 5869 5870 5871 5872 5874 5875 5876 5877 5878 5879 5881
5553 5557 5562 5568 5574 5581 5588 5596 5603 5611 5620 5627 5633 5639 5645 5654 5663 5670 5677 5681 5684 5690 5690 5689 5695 5700 5709 5722 5734 5743 5747 5749 5751 5754 5758 5763 5767 5771 5775 5779 5783 5786 5790 5794 5798 5801 5805 5807 5809 5812 5815 5819 5823 5826 5828 5831 5835 5838 5841 5843 5844 5846 5847 5848 5849 5849 5851 5852 5853 5854 5857 5860 5860 5861 5862 5862 5865 5867 5868 5870 5870 5872 5873 5874 5875 5876 5877 5878
5549 5553 5558 5563 5569 5576 5582 5590 5597 5604 5612 5620 5627 5634 5639 5647 5655 5662 5669 5673 5677 5684 5690 5694 5701 5707 5716 5724 5728 5734 5738 5739 5742 5747 5752 5757 5761 5765 5769 5773 5777 5782 5786 5791 5795 5799 5801 5803 5806 5811 5815 5819 5822 5824 5826 5829 5831 5833 5836 5838 5840 5842 5844 5846 5846 5846 5847 5848 5850 5852 5853 5857 5858 5859 5860 5860 5861 5864 5866 5868 5869 5870 5871 5871 5872 5873 5874 5876
5545 5549 5554 5559 5565 5570 5577 5583 5590 5596 5604 5611 5619 5628 5634 5644 5653 5660 5667 5672 5678 5687 5692 5696 5701 5706 5711 5716 5721 5726 5728 5731 5735 5740 5745 5750 5755 5759 5764 5768 5773 5778 5783 5787 5791 5793 5796 5799 5805 5810 5813 5816 5818 5820 5821 5824 5827 5829 5832 5834 5836 5838 5841 5842 5842 5843 5844 5844 5847 5849 5849 5852 5856 5856 5858 5858 5860 5862 5864 5865 5866 5867 5867 5868 5869 5870 5871 5873
5541 5545 5550 5555 5560 5565 5571 5577 5583 5589 5595 5603 5612 5624 5637 5647 5656 5664 5667 5670 5676 5680 5681 5684 5689 5696 5704 5709 5714 5719 5723 5727 5730 5734 5738 5744 5749 5755 5760 5764 5769 5773 5778 5782 5785 5788 5791 5797 5803 5807 5810 5811 5813 5816 5818 5820 5823 5825 5827 5830 5832 5835 5838 5839 5839 5840 5841 5841 5843 5846 5845 5848 5853 5854 5855 5856 5858 5860 5861 5862 5863 5863 5864 5864 5866 5867 5869 5870
5537 5541 5546 5550 5555 5560 5564 5570 5575 5580 5588 5598 5609 5625 5640 5646 5651 5658 5660 5663 5670 5669 5670 5675 5681 5690 5698 5700 5705 5713 5718 5722 5727 5733 5738 5742 5746 5751 5755 5759 5763 5768 5772 5777 5781 5785 5790 5795 5801 5805 5806 5807 5810 5813 5815 5817 5820 5822 5824 5826 5829 5833 5835 5835 5836 5837 5838 5838 5839 5842 5842 5844 5849 5851 5853 5854 5855 5857 5858 5858 5859 5860 5861 5862 5862 5863 5865 5866
5533 5537 5541 5545 5550 5553 5557 5562 5566 5574 5585 5596 5609 5626 5638 5640 5644 5650 5652 5657 5661 5661 5667 5675 5680 5687 5693 5698 5704 5709 5713 5717 5723 5730 5734 5738 5742 5746 5750 5755 5759 5763 5768 5774 5778 5781 5787 5792 5798 5801 5802 5805 5808 5810 5813 5815 5817 5819 5822 5824 5826 5830 5831 5832 5833 5834 5835 5835 5836 5838 5838 5840 5845 5847 5850 5852 5851 5853 5855 5855 5856 5856 5857 5858 5859 5860 5861 5862
5529 5533 5536 5540 5544 5547 5551 5555 5563 5574 5583 5594 5610 5623 5628 5632 5638 5642 5647 5650 5652 5656 5664 5669 5672 5677 5685 5693 5698 5703 5709 5713 5717 5723 5728 5733 5738 5743 5747 5750 5754 5760 5766 5770 5773 5777 5782 5787 5791 5794 5797 5801 5804 5806 5809 5812 5814 5816 5819 5821 5823 5825 5826 5827 5829 5830 5831 5831 5833 5835 5834 5835 5841 5844 5845 5849 5848 5849 5851 5852 5853 5853 5853 5855 5856 5856 5857 5857
5524 5528 5532 5535 5538 5542 5546 5553 5564 5571 5578 5593 5608 5614 5620 5629 5632 5635 5642 5642 5641 5648 5656 5659 5661 5668 5676 5681 5686 5696 5703 5706 5712 5718 5723 5728 5734 5740 5743 5745 5751 5758 5763 5765 5767 5771 5776 5782 5785 5789 5793 5796 5799 5802 5805 5808 5809 5812 5815 5817 5818 5820 5822 5823 5825 5826 5827 5827 5830 5832 5831 5830 5837 5841 5842 5844 5845 5846 5847 5849 5850 5850 5850 5851 5852 5853 5853 5853
5519 5523 5527 5530 5533 5538 5544 5554 5562 5565 5578 5595 5604 5608 5616 5623 5623 5627 5634 5631 5631 5640 5647 5650 5655 5665 5673 5675 5682 5689 5690 5696 5707 5711 5716 5722 5727 5732 5736 5741 5748 5754 5757 5759 5761 5766 5773 5777 5780 5784 5788 5791 5794 5798 5802 5804 5805 5808 5812 5814 5814 5816 5817 5819 5820 5821 5822 5824 5826 5829 5828 5827 5831 5839 5842 5841 5841 5844 5845 5846 5847 5847 5847 5847 5848 5849 5849 5849
5514 5518 5521 5525 5530 5535 5543 5551 5554 5564 5583 5595 5598 5603 5610 5614 5614 5618 5620 5616 5620 5631 5637 5642 5652 5664 5668 5671 5678 5682 5687 5699 5703 5703 5711 5717 5720 5725 5730 5736 5744 5749 5752 5754 5758 5764 5769 5772 5776 5780 5783 5787 5792 5797 5799 5800 5801 5804 5808 5809 5809 5811 5813 5814 5816 5817 5818 5820 5822 5825 5826 5825 5826 5835 5840 5838 5838 5841 5843 5843 5843 5842 5842 5842 5843 5844 5845 5845
5509 5513 5517 5521 5526 5532 5539 5543 5551 5569 5581 5584 5587 5593 5599 5602 5603 5605 5604 5601 5611 5624 5630 5637 5648 5656 5658 5662 5668 5674 5684 5694 5694 5700 5709 5710 5713 5719 5725 5733 5739 5742 5746 5749 5754 5759 5764 5768 5773 5776 5778 5783 5789 5792 5793 5794 5796 5800 5803 5803 5804 5806 5807 5809 5811 5813 5814 5815 5819 5822 5824 5822 5822 5827 5836 5837 5836 5839 5839 5838 5837 5837 5838 5838 5838 5839 5840 5840
5504 5508 5512 5516 5522 5530 5534 5540 5557 5570 5570 5573 5579 5583 5588 5589 5587 5588 5584 5586 5604 5617 5623 5632 5641 5646 5649 5654 5659 5667 5678 5683 5687 5698 5703 5703 5709 5715 5723 5730 5732 5735 5740 5743 5747 5752 5758 5763 5767 5769 5774 5779 5783 5784 5785 5787 5791 5793 5795 5797 5799 5800 5802 5804 5806 5809 5810 5812 5816 5820 5821 5821 5819 5821 5830 5835 5834 5835 5835 5832 5831 5832 5833 5835 5835 5834 5835 5835
5499 5503 5506 5511 5520 5525 5530 5544 5560 5561 5558 5567 5573 5575 5578 5576 5574 5572 5568 5583 5605 5612 5616 5626 5634 5639 5643 5648 5655 5664 5672 5676 5683 5690 5692 5696 5703 5708 5715 5720 5722 5728 5734 5737 5743 5748 5753 5756 5760 5765 5769 5773 5775 5776 5778 5782 5786 5788 5790 5793 5794 5796 5798 5800 5802 5804 5806 5809 5813 5817 5818 5817 5817 5818 5824 5831 5831 5830 5830 5829 5828 5828 5829 5830 5830 5830 5830 5831
5493 5497 5501 5508 5515 5520 5531 5547 5552 5547 5551 5561 5564 5566 5567 5562 5558 5555 5565 5590 5601 5601 5611 5622 5627 5634 5640 5646 5655 5662 5667 5671 5678 5684 5687 5692 5696 5702 5709 5713 5717 5723 5727 5734 5741 5745 5748 5751 5755 5760 5764 5767 5768 5770 5773 5777 5780 5782 5785 5788 5789 5792 5794 5796 5799 5801 5803 5807 5809 5812 5813 5812 5815 5816 5818 5823 5824 5824 5825 5826 5825 5825 5824 5824 5825 5826 5827 5827
5488 5491 5496 5503 5509 5518 5534 5541 5537 5537 5546 5553 5554 5557 5555 5546 5541 5549 5569 5586 5588 5596 5612 5620 5625 5634 5638 5642 5648 5655 5663 5669 5673 5679 5684 5689 5693 5699 5705 5710 5716 5722 5727 5733 5737 5738 5741 5744 5749 5754 5758 5761 5763 5764 5768 5772 5776 5779 5782 5785 5787 5791 5793 5794 5797 5798 5800 5803 5804 5807 5808 5808 5812 5813 5813 5816 5818 5818 5820 5821 5821 5820 5820 5820 5820 5821 5822 5822
5482 5484 5490 5498 5505 5518 5529 5529 5528 5536 5543 5545 5545 5544 5538 5532 5537 5556 5572 5577 5585 5601 5611 5615 5624 5631 5634 5638 5642 5649 5657 5663 5669 5675 5678 5681 5685 5691 5697 5704 5713 5720 5726 5731 5734 5737 5740 5742 5748 5753 5756 5759 5760 5761 5765 5769 5773 5777 5780 5782 5784 5787 5789 5791 5793 5794 5796 5799 5800 5801 5802 5805 5809 5811 5811 5811 5811 5812 5814 5815 5816 5816 5816 5816 5816 5816 5816 5817
5474 5478 5486 5493 5501 5515 5522 5522 5528 5534 5536 5536 5534 5529 5523 5524 5538 5556 5564 5572 5588 5601 5606 5613 5621 5624 5628 5634 5638 5645 5651 5655 5663 5669 5671 5675 5680 5687 5695 5703 5710 5715 5720 5724 5729 5735 5738 5743 5749 5752 5755 5757 5757 5759 5763 5766 5768 5771 5774 5776 5779 5783 5785 5787 5788 5790 5792 5793 5794 5796 5798 5802 5806 5807 5808 5808 5807 5806 5808 5810 5811 5811 5812 5812 5812 5812 5812 5812
5468 5474 5481 5486 5498 5512 5516 5519 5525 5526 5526 5525 5520 5515 5516 5525 5541 5553 5560 5572 5586 5596 5603 5609 5611 5615 5622 5626 5631 5637 5643 5650 5657 5660 5666 5674 5680 5687 5694 5701 5707 5712 5717 5722 5727 5731 5734 5739 5744 5747 5749 5751 5753 5756 5759 5761 5763 5766 5769 5772 5776 5779 5781 5783 5784 5786 5787 5787 5789 5792 5794 5798 5801 5802 5804 5805 5804 5803 5803 5805 5806 5806 5806 5807 5807 5808 5808 5809
5463 5469 5473 5481 5497 5507 5509 5513 5517 5516 5515 5512 5507 5509 5517 5530 5542 5551 5561 5573 5585 5596 5602 5601 5602 5608 5614 5619 5624 5629 5635 5644 5650 5654 5662 5669 5674 5682 5689 5697 5704 5710 5717 5722 5725 5728 5733 5737 5740 5742 5745 5747 5750 5752 5754 5756 5760 5762 5766 5770 5774 5774 5775 5778 5778 5779 5781 5781 5784 5788 5791 5794 5796 5798 5801 5801 5801 5800 5799 5799 5800 5800 5801 5802 5802 5803 5804 5804
5457 5460 5464 5478 5494 5500 5503 5507 5507 5507 5506 5501 5500 5508 5518 5528 5538 5547 5559 5569 5581 5591 5594 5594 5600 5605 5609 5615 5620 5625 5631 5637 5642 5648 5658 5665 5670 5677 5686 5694 5701 5706 5712 5716 5720 5726 5730 5733 5735 5737 5740 5742 5745 5747 5749 5754 5756 5758 5763 5766 5767 5766 5769 5772 5772 5774 5777 5777 5780 5784 5787 5790 5792 5794 5796 5795 5796 5797 5795 5793 5793 5794 5796 5796 5797 5798 5798 5799
5450 5449 5457 5478 5491 5494 5496 5498 5497 5498 5494 5489 5492 5502 5512 5524 5535 5544 5554 5563 5572 5581 5585 5590 5598 5602 5607 5614 5619 5624 5629 5634 5639 5645 5652 5659 5668 5677 5684 5691 5697 5702 5707 5711 5716 5721 5725 5727 5729 5732 5735 5737 5739 5741 5745 5749 5751 5754 5758 5759 5760 5761 5764 5766 5768 5771 5773 5774 5776 5779 5781 5785 5789 5791 5791 5790 5791 5792 5791 5789 5787 5787 5789 5791 5792 5793 5793 5793
5442 5442 5455 5478 5485 5485 5489 5489 5486 5484 5480 5482 5490 5499 5510 5522 5531 5539 5550 5557 5563 5572 5581 5588 5595 5599 5605 5612 5618 5624 5629 5633 5639 5646 5651 5659 5669 5675 5680 5686 5693 5700 5704 5707 5711 5715 5719 5722 5725 5727 5729 5732 5735 5739 5743 5746 5748 5751 5754 5756 5758 5759 5761 5763 5765 5767 5769 5770 5772 5773 5776 5782 5786 5786 5785 5785 5786 5787 5787 5784 5782 5782 5783 5785 5787 5788 5788 5788
5434 5435 5453 5474 5476 5476 5479 5474 5470 5472 5474 5480 5487 5496 5508 5518 5525 5534 5544 5551 5557 5568 5580 5588 5594 5598 5602 5608 5615 5622 5626 5630 5636 5643 5650 5657 5663 5668 5674 5682 5690 5695 5698 5702 5706 5710 5713 5717 5720 5722 5725 5729 5733 5737 5740 5742 5745 5748 5750 5752 5754 5755 5756 5758 5759 5762 5764 5765 5767 5769 5772 5779 5783 5781 5781 5781 5781 5782 5782 5779 5778 5778 5778 5779 5780 5782 5783 5783
5425 5431 5452 5467 5466 5466 5466 5459 5461 5467 5469 5474 5483 5495 5506 5514 5522 5530 5537 5544 5552 5562 5573 5582 5590 5594 5598 5606 5614 5619 5623 5627 5633 5640 5647 5655 5663 5671 5677 5681 5686 5691 5695 5699 5703 5706 5709 5712 5715 5718 5722 5726 5730 5734 5736 5738 5740 5742 5744 5747 5747 5748 5750 5751 5753 5758 5759 5760 5764 5765 5768 5776 5779 5777 5776 5777 5776 5777 5776 5774 5773 5773 5773 5773 5773 5775 5777 5777
5420 5432 5448 5455 5454 5456 5453 5448 5453 5457 5461 5473 5487 5497 5503 5508 5516 5524 5530 5538 5545 5553 5563 5573 5582 5588 5594 5602 5610 5615 5620 5626 5632 5639 5646 5654 5662 5670 5674 5676 5680 5684 5687 5691 5696 5701 5704 5707 5710 5714 5718 5722 5726 5729 5731 5732 5735 5736 5739 5742 5741 5743 5746 5746 5749 5753 5753 5756 5761 5762 5765 5772 5775 5772 5772 5771 5770 5771 5770 5769 5768 5768 5768 5767 5767 5769 5770 5771
5420 5427 5434 5439 5444 5445 5438 5437 5444 5451 5460 5474 5484 5489 5496 5503 5510 5516 5522 5530 5538 5548 5558 5566 5575 5585 5593 5600 5606 5611 5618 5624 5630 5636 5643 5650 5656 5662 5666 5670 5674 5678 5682 5688 5694 5697 5698 5699 5704 5708 5710 5714 5719 5721 5723 5726 5729 5731 5733 5735 5736 5739 5740 5741 5745 5748 5749 5755 5759 5759 5762 5768 5769 5767 5766 5765 5765 5765 5765 5764 5763 5763 5763 5763 5763 5764 5765 5765
5411 5415 5421 5429 5433 5430 5427 5433 5443 5450 5458 5469 5476 5481 5488 5495 5503 5512 5522 5530 5539 5548 5555 5563 5575 5585 5591 5597 5602 5608 5614 5621 5626 5632 5639 5644 5650 5656 5660 5664 5670 5675 5681 5687 5690 5691 5692 5694 5698 5701 5703 5709 5713 5715 5720 5724 5725 5727 5729 5731 5733 5735 5736 5739 5743 5744 5748 5753 5754 5753 5758 5762 5763 5762 5760 5760 5761 5761 5760 5759 5758 5758 5758 5759 5759 5759 5759 5759
5400 5404 5411 5419 5421 5419 5423 5432 5440 5446 5454 5462 5469 5475 5480 5487 5497 5510 5522 5530 5537 5546 5553 5563 5576 5583 5585 5589 5596 5601 5608 5615 5622 5629 5636 5641 5646 5652 5656 5661 5666 5670 5675 5679 5682 5684 5686 5689 5694 5699 5703 5709 5712 5716 5721 5723 5723 5726 5729 5730 5731 5732 5734 5736 5737 5740 5745 5747 5747 5750 5753 5755 5758 5758 5755 5755 5756 5756 5754 5753 5752 5751 5752 5753 5754 5754 5754 5754
5392 5395 5401 5408 5412 5414 5419 5425 5431 5439 5449 5457 5461 5466 5474 5483 5494 5505 5513 5521 5530 5540 5550 5560 5569 5573 5575 5581 5589 5597 5603 5610 5617 5624 5631 5637 5643 5648 5652 5657 5660 5664 5668 5673 5676 5679 5680 5684 5691 5697 5701 5705 5708 5712 5716 5717 5719 5722 5724 5724 5726 5727 5728 5729 5732 5738 5740 5739 5743 5749 5749 5749 5753 5753 5750 5751 5750 5749 5748 5746 5745 5745 5745 5746 5748 5750 5750 5750
5385 5390 5397 5404 5408 5410 5414 5418 5424 5434 5445 5454 5460 5464 5470 5478 5488 5497 5502 5510 5522 5533 5542 5550 5558 5566 5573 5580 5588 5593 5599 5607 5613 5618 5624 5631 5638 5643 5646 5650 5654 5658 5662 5666 5671 5673 5676 5682 5689 5693 5695 5699 5702 5705 5707 5710 5712 5714 5716 5717 5719 5719 5721 5725 5731 5735 5734 5734 5741 5745 5743 5744 5748 5747 5744 5745 5744 5743 5742 5740 5740 5741 5740 5740 5742 5744 5745 5744
5380 5386 5393 5398 5401 5408 5415 5420 5426 5434 5442 5449 5454 5460 5467 5475 5484 5492 5497 5504 5514 5523 5532 5541 5550 5560 5571 5579 5585 5590 5596 5603 5609 5615 5622 5628 5633 5637 5641 5644 5648 5652 5656 5661 5665 5668 5672 5678 5683 5686 5690 5693 5696 5699 5701 5703 5705 5707 5710 5712 5713 5715 5719 5724 5729 5730 5729 5731 5736 5737 5736 5739 5742 5740 5739 5740 5739 5738 5737 5736 5735 5734 5734 5735 5737 5739 5739 5739
5377 5383 5391 5394 5396 5404 5414 5420 5425 5432 5438 5443 5448 5455 5464 5473 5482 5490 5495 5502 5508 5515 5525 5538 5549 5560 5569 5576 5582 5589 5597 5606 5613 5619 5624 5626 5628 5633 5638 5643 5647 5650 5653 5657 5661 5665 5668 5673 5677 5681 5684 5686 5689 5693 5695 5696 5698 5701 5703 5706 5709 5713 5716 5720 5722 5721 5722 5727 5730 5729 5731 5735 5737 5736 5736 5736 5734 5733 5732 5731 5729 5727 5728 5731 5733 5734 5735 5736
5376 5382 5389 5394 5396 5401 5407 5414 5421 5427 5430 5434 5440 5449 5458 5468 5479 5488 5494 5502 5511 5518 5526 5537 5550 5563 5571 5576 5581 5590 5601 5610 5616 5621 5625 5628 5632 5635 5637 5640 5643 5645 5648 5652 5656 5660 5663 5666 5671 5675 5676 5679 5684 5686 5687 5689 5691 5692 5695 5702 5707 5709 5710 5712 5715 5715 5718 5723 5724 5723 5726 5732 5734 5733 5732 5730 5727 5727 5727 5725 5723 5723 5726 5728 5729 5729 5730 5732
5372 5377 5383 5390 5395 5399 5402 5409 5417 5421 5424 5430 5439 5448 5457 5466 5477 5486 5493 5501 5512 5522 5532 5543 5553 5561 5565 5570 5580 5594 5603 5608 5612 5618 5622 5626 5630 5632 5633 5636 5638 5640 5643 5647 5651 5654 5657 5661 5666 5668 5670 5674 5677 5679 5681 5683 5682 5684 5694 5703 5705 5703 5704 5707 5709 5711 5714 5717 5717 5718 5723 5726 5725 5725 5724 5722 5720 5721 5721 5719 5718 5721 5724 5724 5724 5725 5726 5726